Location: Winnipeg
(49.8830°N, 97.1670°W)
Time: 04:34:45
(UTC-06:00)

ISS - Pass Details

Date: 01 February 2021
Orbit: 417 x 422 km, 51.6° (Epoch: 07 March)

Event Time Altitude Azimuth Distance (km) Brightness Sun altitude
Rises 18:01:30 0° 284° (WNW) 2,374 1.2 -6.4°
Reaches altitude 10° 18:03:36 10° 286° (WNW) 1,509 0.0 -6.7°
Maximum altitude 18:07:00 77° 12° (NNE) 439 -3.7 -7.3°
Drops below altitude 10° 18:10:23 10° 100° (E) 1,508 -1.5 -7.8°
Enters shadow 18:10:44 - 100° (E) 1,654 -1.3 -7.8°
